Theta_e
325 327 328 326 332 331 335 335 331 331 338 329 329 329 326 331 328 329 331 332 332 332 337 336 335 333 332 330 329 328 327 328 327 327 327 328 327 329 327 327 327 328 327 327 327 327 326 326 326
326 328 326 324 331 333 329 328 330 330 333 327 327 334 336 338 334 328 331 332 332 332 337 336 334 333 332 331 328 328 327 328 328 328 328 328 328 328 329 328 328 327 327 327 327 327 327 326 325
326 328 326 329 332 331 328 327 335 336 333 329 332 333 335 338 332 329 330 332 333 333 336 336 335 333 332 331 329 328 327 327 328 327 328 327 328 333 330 327 327 326 327 328 328 328 328 324 324
325 323 321 330 334 331 326 325 324 326 335 334 333 338 332 333 332 330 330 332 334 334 336 335 335 333 333 332 328 329 328 328 328 327 327 328 329 329 327 326 326 327 328 328 329 329 328 325 325
325 322 329 330 331 329 326 324 324 325 326 334 333 337 336 333 333 330 331 334 335 335 335 335 335 335 333 332 330 329 328 328 328 328 327 327 327 325 326 326 327 327 328 328 329 329 326 325 324
327 323 330 332 331 328 325 322 323 323 323 326 335 335 334 332 334 334 333 335 336 335 335 335 335 334 333 332 331 328 328 328 327 327 327 327 325 325 327 326 327 328 328 329 328 326 323 322 324
327 327 330 329 329 328 327 323 323 324 323 325 332 337 333 332 332 334 335 335 336 335 335 335 335 335 334 333 332 328 328 328 328 327 327 326 326 326 327 327 327 328 328 328 327 319 319 322 323
326 326 330 329 330 330 326 324 322 326 327 328 331 338 337 331 331 334 335 335 335 336 334 336 336 336 334 333 333 329 327 327 327 327 327 326 326 326 326 326 327 327 327 327 324 319 321 321 322
322 331 333 331 329 328 324 324 321 321 330 330 334 332 331 334 329 331 332 334 335 335 334 331 335 336 335 334 333 330 326 327 327 327 327 325 325 325 326 326 327 327 327 326 323 318 318 320 322
321 329 329 328 327 324 321 323 323 324 325 327 333 332 332 333 325 327 330 332 333 334 334 332 330 335 336 335 334 331 327 327 326 327 326 325 324 324 324 325 326 326 327 324 323 321 317 320 320
309 324 312 320 314 310 313 314 317 324 326 325 328 324 332 332 327 325 329 331 332 333 333 332 330 332 335 336 334 332 328 328 326 327 324 323 323 322 322 323 326 327 324 323 320 321 317 318 319
308 309 308 309 308 308 310 312 314 319 320 321 320 320 331 332 331 325 326 330 332 332 333 332 329 330 334 334 334 333 330 328 327 327 325 322 321 320 321 323 325 326 324 321 319 319 317 317 317
308 306 305 305 305 305 305 307 310 311 312 315 317 322 331 332 332 329 326 327 332 332 333 332 330 329 331 331 331 333 331 328 328 326 324 324 319 319 319 322 325 326 324 320 316 316 316 316 316
306 304 304 304 304 303 306 304 308 311 311 313 315 322 328 330 331 331 329 327 331 333 333 333 333 331 330 329 330 331 331 329 327 326 325 325 319 318 320 322 325 326 325 321 318 315 315 315 315
306 306 304 304 303 304 304 303 309 304 303 303 304 308 315 327 330 330 330 328 328 332 333 333 333 332 331 330 329 330 330 329 328 327 326 325 319 318 320 321 325 325 327 320 316 315 314 313 313
304 302 301 302 302 304 304 303 304 303 304 304 301 302 307 309 321 330 330 328 328 328 332 333 334 333 333 332 330 331 330 329 329 328 326 324 320 319 319 322 324 323 326 317 315 314 311 311 310
301 302 302 303 303 304 305 305 304 305 305 304 304 303 301 305 307 308 323 330 328 328 328 332 333 334 334 333 331 331 330 330 329 327 320 322 321 322 321 323 324 325 322 315 313 311 310 307 307
304 304 304 304 303 304 304 305 305 304 304 305 304 304 303 302 305 307 308 316 329 329 328 329 333 333 332 333 331 330 328 328 327 325 319 317 321 322 322 322 325 325 318 314 311 309 306 305 303
303 304 306 305 304 304 305 306 306 305 305 304 304 304 303 303 302 306 307 310 316 329 328 326 332 333 332 331 328 326 325 325 326 324 321 319 321 323 324 323 324 321 315 314 311 307 303 299 299
304 306 306 305 305 306 307 306 305 304 303 303 303 302 302 303 302 303 306 309 317 328 327 326 328 333 331 330 327 325 324 323 324 323 323 323 323 323 323 325 323 319 315 311 308 308 299 297 297
305 307 306 306 306 305 304 304 302 303 302 301 305 303 305 306 303 301 302 306 308 324 327 326 326 329 330 328 324 324 322 321 321 322 324 324 323 323 324 323 321 317 314 311 308 304 302 297 297
306 305 305 305 306 305 305 306 305 304 303 305 307 306 305 305 305 305 305 306 307 323 327 327 326 326 328 326 323 323 320 318 318 321 322 322 321 321 320 319 318 314 311 307 305 301 300 297 294
303 302 304 304 306 306 306 308 304 303 304 308 308 306 304 304 304 304 303 304 305 308 327 326 326 326 325 324 324 322 321 318 317 317 316 315 316 315 314 314 313 308 306 305 302 299 298 296 296
301 302 303 302 307 302 305 307 305 304 309 310 308 306 304 303 302 302 302 302 303 304 317 327 326 326 325 322 322 322 321 315 312 311 310 309 308 308 309 309 307 305 301 301 299 298 296 296 296
301 300 294 298 296 302 304 305 306 307 310 309 305 304 304 302 301 301 300 301 301 301 304 321 326 326 325 321 320 321 319 317 316 310 307 304 303 302 302 303 301 299 297 297 296 296 294 295 298
301 299 305 308 302 306 306 309 307 310 308 303 302 302 301 300 300 300 300 299 300 300 302 305 324 326 326 320 319 320 318 313 309 308 306 303 302 300 297 297 297 295 294 294 295 297 297 297 296
297 298 304 308 305 308 306 305 305 306 303 302 302 301 301 299 299 299 299 299 299 299 301 302 306 325 325 321 319 318 314 311 308 304 300 298 295 294 293 294 294 294 295 297 297 296 295 294 292
300 305 302 300 305 304 307 308 306 306 304 303 302 302 300 299 299 298 298 298 298 298 300 301 303 316 323 320 318 313 309 307 305 300 297 295 293 291 292 292 294 295 296 295 295 293 291 287 283
295 296 304 305 306 308 308 306 305 305 304 304 303 302 299 298 297 296 297 297 298 299 300 301 303 311 320 317 312 307 304 301 299 296 293 292 291 290 292 294 294 294 293 293 291 288 283 282 282
298 300 303 304 306 305 306 305 307 305 304 303 301 300 296 295 296 296 297 298 299 301 303 306 305 312 313 309 305 300 297 294 293 292 292 292 291 293 292 293 293 292 290 289 287 282 282 282 281
Wind_Speed
18 19 11 2 2 3 3 6 4 5 4 2 1 3 6 2 4 4 3 12 30 36 34 30 28 25 24 23 22 21 19 19 19 19 18 17 16 16 15 15 14 14 14 13 13 13 14 14 13
18 12 3 2 3 2 5 5 7 7 3 2 4 2 2 1 1 4 14 15 33 38 36 31 28 27 25 23 23 24 20 20 19 19 18 17 16 16 16 15 14 13 14 14 13 13 12 12 12
10 4 1 2 3 5 5 5 2 4 5 3 4 2 2 3 1 13 6 26 34 39 37 32 29 28 25 23 22 23 23 20 20 19 18 17 16 15 17 15 14 15 14 14 13 11 11 11 13
5 3 3 1 6 4 6 5 2 5 3 4 2 3 2 3 3 14 19 31 36 40 39 34 31 30 25 23 22 23 23 21 21 20 18 17 16 15 15 16 16 16 15 14 12 11 10 10 11
1 1 3 3 5 5 4 6 3 6 5 3 6 4 3 4 4 17 25 31 39 40 39 37 35 32 28 25 22 26 24 22 21 21 19 19 17 16 17 17 17 16 14 13 11 10 10 9 10
1 2 2 6 9 7 4 6 3 4 7 5 2 7 4 2 11 19 28 32 34 39 40 38 34 33 29 26 23 26 26 23 21 20 19 19 17 18 19 18 17 15 14 12 11 10 10 9 11
3 2 4 3 6 6 5 3 3 4 6 7 3 7 2 4 15 23 28 31 32 35 38 38 35 33 31 30 27 26 26 24 23 21 20 20 19 20 19 18 17 16 14 11 11 9 10 11 12
2 2 2 5 10 13 6 2 4 3 7 1 4 4 5 5 21 25 27 29 29 34 39 38 35 35 33 31 29 26 27 25 24 22 20 20 20 20 20 18 16 14 13 12 12 11 12 13 14
1 2 5 7 7 7 7 7 5 6 5 4 2 2 4 20 25 26 24 26 28 31 38 39 38 35 35 33 31 27 28 27 26 23 22 21 22 22 21 19 17 14 13 12 13 12 12 15 16
1 3 5 2 4 4 8 4 7 5 7 4 4 5 1 27 28 24 22 22 24 27 34 39 39 36 35 35 34 31 29 30 28 26 24 24 24 23 21 19 17 14 13 12 12 12 11 14 15
5 3 7 5 8 11 8 9 6 7 6 7 4 6 3 11 21 23 25 29 33 27 27 35 39 33 33 34 36 35 34 34 31 29 26 25 24 23 22 20 18 15 14 13 12 14 13 13 13
4 3 4 7 9 8 9 7 8 10 10 9 6 8 5 9 14 19 22 24 28 32 32 34 38 37 32 29 36 32 33 36 34 33 28 27 27 25 23 22 20 19 17 15 13 15 16 15 14
2 6 11 9 11 9 12 12 11 15 12 16 12 7 9 11 15 22 24 17 22 27 34 37 38 36 32 30 30 32 33 35 35 34 32 31 30 29 27 25 22 21 18 16 15 16 17 16 16
4 6 10 8 9 7 7 9 4 4 7 11 8 8 8 9 13 15 16 18 28 30 33 37 38 40 33 33 31 33 32 35 35 34 34 31 31 32 30 27 24 23 22 19 17 17 18 18 17
5 5 7 1 5 6 11 8 6 6 8 9 7 8 11 10 17 16 24 24 30 35 32 37 32 34 35 33 35 36 34 35 37 36 34 32 31 31 30 28 27 25 24 24 21 19 18 18 18
5 3 5 8 8 6 4 8 12 9 13 15 10 6 7 10 11 18 24 29 25 28 36 40 34 34 35 37 37 36 36 39 36 37 36 34 33 30 30 29 27 24 25 26 24 22 21 19 19
6 5 6 8 8 5 4 16 7 21 17 17 15 13 8 10 12 18 18 24 28 30 34 36 39 37 37 36 33 32 36 40 38 35 36 35 35 31 31 30 30 27 29 28 27 25 22 22 21
9 7 6 13 7 12 14 23 15 15 20 20 18 14 11 9 15 19 21 19 27 34 36 40 39 35 38 37 35 33 33 34 36 35 35 34 35 33 32 30 30 31 32 28 26 25 23 24 23
7 6 12 14 14 6 11 23 21 25 18 17 17 16 16 13 10 22 24 23 23 31 34 35 37 35 36 32 33 31 31 31 33 34 37 32 36 33 30 30 28 35 32 30 28 26 26 23 25
7 7 11 9 6 12 16 24 23 18 9 8 10 10 11 14 8 10 19 23 21 26 33 35 39 39 40 36 36 26 30 32 34 33 31 31 35 33 32 30 32 36 34 30 30 31 26 21 24
5 9 7 15 17 12 8 8 12 9 4 5 5 4 6 10 12 8 9 20 27 27 31 36 40 41 42 38 30 27 31 26 28 31 31 30 32 32 31 30 33 32 31 31 32 31 29 22 15
7 7 9 17 12 9 5 7 12 4 8 3 6 7 9 11 11 11 11 15 20 23 32 36 40 40 42 39 39 41 35 24 24 36 36 33 29 29 28 29 30 29 28 28 27 28 22 27 21
9 12 12 16 14 8 3 3 8 4 3 6 7 8 8 11 11 12 11 18 22 21 26 31 35 38 38 39 45 43 31 26 30 33 29 28 29 27 25 26 25 23 24 23 23 23 21 23 24
7 13 13 3 1 2 3 3 9 4 3 5 9 9 8 13 12 12 16 20 20 25 19 29 30 33 36 39 41 43 34 35 34 36 36 33 29 28 26 26 24 23 22 23 22 20 19 22 19
10 6 5 6 4 5 2 4 10 3 1 5 12 16 12 13 13 13 14 15 23 22 25 15 30 31 34 41 38 39 39 45 46 45 42 39 33 28 25 25 25 25 23 24 25 27 26 22 22
4 3 1 6 3 12 11 6 5 3 3 6 10 12 14 14 12 14 13 14 21 22 23 23 21 30 31 37 38 35 43 39 37 42 44 40 38 34 29 29 27 29 31 32 30 30 25 20 15
5 1 3 5 3 4 3 7 5 5 14 21 22 20 22 21 18 17 15 16 20 23 22 21 19 27 29 35 32 35 40 39 39 36 37 38 35 37 33 34 37 36 33 31 30 26 22 21 17
3 4 4 2 5 6 5 5 6 8 19 20 20 20 21 18 20 20 17 20 22 25 23 26 22 19 29 34 30 32 31 37 39 38 37 36 39 38 41 39 37 33 34 33 30 27 24 23 22
5 4 2 3 4 4 6 5 4 9 22 21 19 20 23 21 21 20 18 21 22 25 24 24 25 17 28 28 31 30 32 31 36 35 37 39 40 43 44 42 39 38 33 30 30 29 26 25 24
4 2 1 2 4 4 5 7 5 17 17 22 21 16 19 19 19 18 15 18 18 19 19 21 21 18 31 33 33 32 34 33 36 39 39 40 44 45 44 45 41 38 34 30 27 27 25 25 23
Wind_Direction
328 329 328 40 58 73 260 258 271 298 305 185 219 142 194 132 167 207 154 163 166 165 168 166 163 160 158 155 154 152 152 149 147 146 145 144 141 136 136 137 132 129 123 120 116 112 110 110 106
331 331 346 79 122 181 258 244 247 244 236 105 70 5 322 232 99 120 138 172 169 166 167 167 168 165 164 158 158 154 155 154 154 150 150 145 143 142 142 136 130 130 128 124 119 115 111 112 114
334 335 79 170 186 196 213 221 224 290 261 214 120 110 178 229 109 166 175 163 170 168 169 168 172 168 169 165 161 156 159 156 157 153 151 151 150 148 134 137 137 136 131 127 123 119 114 116 118
333 357 17 172 238 258 206 238 334 332 281 210 127 227 259 208 191 187 162 165 170 171 172 168 175 172 172 171 164 160 164 162 160 160 159 156 154 145 147 140 140 137 134 131 126 119 114 117 126
94 63 243 244 250 259 253 270 248 299 291 247 168 215 263 345 186 172 168 171 171 172 176 171 177 176 174 174 171 165 168 166 165 164 162 160 156 150 147 147 145 140 136 133 127 121 120 125 135
120 115 227 246 244 261 267 243 273 242 257 265 203 144 237 306 165 170 171 173 177 173 177 175 181 179 176 177 178 174 170 169 170 169 168 165 159 156 155 152 149 143 142 138 133 125 127 127 129
167 150 232 245 261 272 261 190 206 273 278 254 162 158 246 199 186 173 175 175 178 180 179 179 183 181 179 181 180 176 175 173 171 172 173 171 165 163 161 161 153 156 152 146 133 124 132 130 128
164 154 254 224 250 266 260 343 331 306 288 343 151 199 227 203 174 174 176 177 181 184 183 183 184 185 184 184 184 180 178 178 175 174 177 174 174 172 170 165 161 159 157 149 137 128 131 128 130
112 239 241 239 229 258 319 358 327 301 270 321 295 210 303 161 164 167 169 177 183 188 189 188 187 188 188 187 185 183 180 180 180 179 180 179 180 179 176 169 166 163 157 154 146 140 135 137 133
186 247 243 259 323 322 326 320 328 312 303 304 319 337 249 159 159 166 176 181 184 186 192 194 192 189 192 189 186 186 183 182 183 183 186 189 184 182 180 173 170 165 165 157 156 161 145 144 139
326 237 334 327 348 350 307 314 334 286 267 238 247 292 223 186 178 180 188 190 189 186 188 196 196 189 190 190 189 187 185 185 187 190 191 191 187 185 183 178 174 171 168 165 161 169 162 156 148
341 321 30 309 331 320 301 297 284 250 258 289 317 305 179 223 199 195 193 192 187 190 191 196 198 192 191 190 192 191 186 190 190 190 194 189 188 187 187 185 180 176 173 169 167 165 164 161 152
225 339 318 306 295 285 279 267 262 268 288 285 293 284 218 217 227 214 207 195 187 190 193 197 199 195 193 193 192 193 192 195 195 196 195 193 192 190 188 187 186 182 181 178 170 167 165 161 153
294 288 285 288 309 295 300 296 267 341 288 278 287 271 250 225 230 232 216 198 192 194 196 198 200 199 193 196 199 198 197 200 201 201 199 199 197 193 190 189 188 188 188 185 181 172 164 159 155
275 318 318 167 318 297 343 304 220 324 7 335 328 324 308 254 240 221 222 213 201 201 195 199 195 198 200 198 201 198 202 206 205 205 204 204 204 200 194 193 192 192 197 187 177 169 165 159 154
342 46 7 316 322 298 24 276 307 326 327 307 295 277 284 302 290 250 229 220 216 200 198 201 196 195 197 198 202 197 198 206 207 208 207 208 204 203 203 200 196 200 195 186 178 172 162 155 150
16 313 304 315 318 281 24 296 288 309 296 293 292 286 252 271 278 284 273 234 221 211 204 199 198 198 198 198 197 197 199 205 209 208 211 208 205 205 208 203 198 199 190 188 180 171 170 154 146
305 308 292 296 281 303 300 286 293 286 279 278 282 277 268 234 252 257 264 265 236 222 212 209 202 199 198 198 197 198 199 201 202 205 208 207 208 209 209 212 207 202 191 187 183 173 166 157 148
264 270 288 284 280 298 276 289 297 283 286 278 278 278 279 260 238 249 256 256 260 223 212 207 200 202 194 191 188 191 193 196 204 206 209 207 207 208 210 209 210 194 193 193 187 170 161 147 152
297 285 285 282 285 313 301 299 284 294 275 269 274 289 292 294 266 254 255 259 253 224 212 205 203 200 195 196 196 191 187 195 203 206 206 210 207 209 210 210 203 194 193 191 186 175 156 150 154
294 281 277 292 311 285 305 296 284 284 289 341 10 355 348 353 335 309 280 265 256 233 213 207 203 200 199 195 182 188 189 190 195 196 201 203 206 207 208 213 203 197 196 195 192 186 172 155 168
299 254 288 295 317 307 57 304 294 301 317 353 350 351 346 348 339 336 336 330 324 256 224 208 205 200 198 188 183 188 182 180 191 190 195 196 195 198 201 197 195 194 196 193 191 188 184 163 146
260 306 286 289 292 303 336 245 269 300 297 342 336 334 333 341 329 323 319 319 316 311 240 214 207 202 198 188 188 189 185 184 184 184 180 179 180 186 184 185 190 190 190 188 190 183 175 169 153
301 324 312 17 275 310 217 180 283 309 8 327 333 331 335 335 324 321 317 322 322 328 305 215 202 203 196 190 190 190 182 179 173 175 172 173 172 171 176 179 180 178 185 177 172 158 157 151 139
10 359 339 353 1 234 160 286 254 264 348 355 338 334 334 331 325 318 323 326 322 326 318 269 200 197 196 189 191 189 184 187 183 177 173 170 168 166 168 171 169 163 161 149 143 134 127 123 121
316 128 253 307 300 296 279 230 260 149 20 319 329 327 330 326 315 321 314 311 308 311 307 307 230 202 197 189 190 185 189 182 179 176 177 171 170 167 166 163 158 151 143 134 130 126 122 122 121
290 331 222 265 254 275 262 287 296 29 355 349 343 332 330 328 326 319 312 306 300 302 294 300 301 212 195 190 190 184 182 178 175 176 170 165 161 159 155 151 144 140 135 134 131 124 129 131 127
152 315 340 347 307 295 264 268 254 360 345 339 327 321 324 320 317 313 310 306 299 291 285 288 274 252 194 185 187 176 171 175 173 169 162 156 155 155 147 141 137 135 132 129 129 127 127 132 136
340 349 12 277 246 285 313 272 181 349 340 332 325 320 322 317 314 310 306 301 294 288 279 268 264 251 174 164 162 161 161 158 158 152 150 151 146 144 142 139 136 131 129 129 127 129 141 139 137
225 196 10 253 316 269 261 275 205 332 335 333 328 326 320 315 310 311 306 298 292 291 281 248 240 232 150 152 151 143 137 135 136 137 139 142 139 142 138 135 133 131 127 128 134 140 142 144 137